PUA2046 SUMU-SABE

Flight info

Callsign PUA2046
Flight time 0h 27m
Altitude 16000
Route DAGUS A306 UGIMI
Aircraft A320/M-SDE3FGHIRWY/LB1

Departure

Time 2026-04-22 18:07
Airport Carrasco General Cesáreo L. Berisso International Airport (SUMU)

Arrival

Time 2026-04-22 18:34
Airport Aeroparque Jorge Newbery (SABE)
Time Latitude Longitude Altitude Speed Heading
2026-04-22 17:07 -34.83589 -56.01715 74 ft 0 kts 143°
2026-04-22 17:55 -34.83584 -56.01719 59 ft 4 kts 143°
2026-04-22 17:55 -34.83563 -56.01739 66 ft 4 kts 142°
2026-04-22 17:56 -34.83542 -56.01760 63 ft 4 kts 137°
2026-04-22 17:56 -34.83523 -56.01783 64 ft 4 kts 119°
2026-04-22 17:56 -34.83518 -56.01808 65 ft 2 kts 56°
2026-04-22 17:56 -34.83519 -56.01810 65 ft 0 kts 53°
2026-04-22 18:00 -34.83511 -56.01797 74 ft 5 kts 53°
2026-04-22 18:01 -34.83485 -56.01758 69 ft 7 kts 37°
2026-04-22 18:01 -34.83437 -56.01776 67 ft 9 kts 325°
2026-04-22 18:01 -34.83391 -56.01815 76 ft 7 kts 325°
2026-04-22 18:01 -34.83350 -56.01849 82 ft 7 kts 325°
2026-04-22 18:02 -34.83299 -56.01863 85 ft 9 kts 27°
2026-04-22 18:02 -34.83268 -56.01811 85 ft 7 kts 56°
2026-04-22 18:02 -34.83236 -56.01754 89 ft 14 kts 56°
2026-04-22 18:02 -34.83184 -56.01661 91 ft 13 kts 53°
2026-04-22 18:03 -34.83134 -56.01583 98 ft 10 kts 52°
2026-04-22 18:03 -34.83094 -56.01520 100 ft 9 kts 52°
2026-04-22 18:03 -34.83058 -56.01463 102 ft 9 kts 52°
2026-04-22 18:03 -34.83019 -56.01400 104 ft 10 kts 53°
2026-04-22 18:04 -34.82981 -56.01336 106 ft 9 kts 53°
2026-04-22 18:04 -34.82946 -56.01277 109 ft 8 kts 53°
2026-04-22 18:04 -34.82902 -56.01232 111 ft 9 kts
2026-04-22 18:04 -34.82841 -56.01268 111 ft 11 kts 324°
2026-04-22 18:05 -34.82790 -56.01314 110 ft 8 kts 323°
2026-04-22 18:05 -34.82791 -56.01366 109 ft 7 kts 234°
2026-04-22 18:05 -34.82793 -56.01369 109 ft 0 kts 233°
2026-04-22 18:06 -34.82798 -56.01377 108 ft 6 kts 233°
2026-04-22 18:06 -34.82958 -56.01642 99 ft 76 kts 234°
2026-04-22 18:06 -34.83404 -56.02374 88 ft 134 kts 233°
2026-04-22 18:07 -34.83803 -56.03046 178 ft 156 kts 236°
2026-04-22 18:07 -34.84650 -56.04499 1106 ft 158 kts 242°
2026-04-22 18:07 -34.85032 -56.05748 1880 ft 159 kts 255°
2026-04-22 18:07 -34.85254 -56.07126 2367 ft 175 kts 258°
2026-04-22 18:08 -34.85471 -56.08681 2710 ft 198 kts 258°
2026-04-22 18:08 -34.85722 -56.10440 3118 ft 223 kts 258°
2026-04-22 18:08 -34.86012 -56.12393 3683 ft 244 kts 258°
2026-04-22 18:08 -34.86327 -56.14450 4598 ft 249 kts 256°
2026-04-22 18:09 -34.86657 -56.16533 5565 ft 252 kts 257°
2026-04-22 18:09 -34.86993 -56.18626 6605 ft 252 kts 257°
2026-04-22 18:09 -34.87332 -56.20726 7597 ft 252 kts 257°
2026-04-22 18:09 -34.87673 -56.22825 8540 ft 254 kts 257°
2026-04-22 18:10 -34.88017 -56.24944 9461 ft 257 kts 257°
2026-04-22 18:10 -34.88366 -56.27088 10321 ft 261 kts 257°
2026-04-22 18:10 -34.88738 -56.29344 10658 ft 284 kts 257°
2026-04-22 18:10 -34.89142 -56.31790 11018 ft 302 kts 258°
2026-04-22 18:11 -34.89559 -56.34328 11691 ft 308 kts 258°
2026-04-22 18:11 -34.89980 -56.36895 12447 ft 311 kts 259°
2026-04-22 18:11 -34.90410 -56.39529 13224 ft 314 kts 260°
2026-04-22 18:11 -34.90839 -56.42158 13969 ft 318 kts 260°
2026-04-22 18:12 -34.91270 -56.44803 14652 ft 320 kts 261°
2026-04-22 18:12 -34.91707 -56.47478 15325 ft 323 kts 261°
2026-04-22 18:12 -34.91997 -56.49257 15745 ft 325 kts 261°
2026-04-22 18:12 -34.92586 -56.52887 16046 ft 326 kts 261°
2026-04-22 18:13 -34.93029 -56.55652 16087 ft 339 kts 261°
2026-04-22 18:13 -34.93483 -56.58487 16097 ft 342 kts 261°
2026-04-22 18:13 -34.93943 -56.61335 16091 ft 342 kts 261°
2026-04-22 18:13 -34.94400 -56.64179 16097 ft 342 kts 261°
2026-04-22 18:14 -34.94861 -56.67023 16098 ft 342 kts 261°
2026-04-22 18:14 -34.95320 -56.69875 16098 ft 342 kts 261°
2026-04-22 18:14 -34.95778 -56.72725 16098 ft 342 kts 261°
2026-04-22 18:14 -34.96235 -56.75571 16098 ft 342 kts 261°
2026-04-22 18:15 -34.96692 -56.78424 16100 ft 342 kts 261°
2026-04-22 18:15 -34.97148 -56.81267 16101 ft 342 kts 261°
2026-04-22 18:15 -34.97600 -56.84112 16103 ft 342 kts 262°
2026-04-22 18:15 -34.98050 -56.86963 16118 ft 342 kts 262°
2026-04-22 18:16 -34.98284 -56.89837 16118 ft 340 kts 271°
2026-04-22 18:16 -34.98280 -56.92720 16119 ft 340 kts 271°
2026-04-22 18:16 -34.98269 -56.95603 16117 ft 340 kts 271°
2026-04-22 18:16 -34.98255 -56.98486 16120 ft 340 kts 272°
2026-04-22 18:17 -34.98240 -57.01369 16122 ft 340 kts 272°
2026-04-22 18:17 -34.98226 -57.04248 16123 ft 340 kts 271°
2026-04-22 18:17 -34.98218 -57.06198 16123 ft 340 kts 271°
2026-04-22 18:17 -34.98206 -57.09072 16122 ft 340 kts 271°
2026-04-22 18:18 -34.98194 -57.11954 16112 ft 340 kts 271°
2026-04-22 18:18 -34.98180 -57.14835 16114 ft 340 kts 272°
2026-04-22 18:18 -34.98167 -57.17718 16116 ft 340 kts 272°
2026-04-22 18:18 -34.98152 -57.20594 16118 ft 339 kts 272°
2026-04-22 18:19 -34.98111 -57.23464 16114 ft 339 kts 276°
2026-04-22 18:19 -34.97566 -57.26245 16123 ft 338 kts 289°
2026-04-22 18:19 -34.96768 -57.28938 16119 ft 338 kts 289°
2026-04-22 18:19 -34.95961 -57.31634 16118 ft 338 kts 289°
2026-04-22 18:20 -34.95149 -57.34326 16115 ft 338 kts 289°
2026-04-22 18:20 -34.94337 -57.37010 16049 ft 334 kts 289°
2026-04-22 18:20 -34.93548 -57.39622 15814 ft 321 kts 289°
2026-04-22 18:20 -34.92790 -57.42129 15569 ft 310 kts 289°
2026-04-22 18:21 -34.92054 -57.44564 15326 ft 303 kts 289°
2026-04-22 18:21 -34.91331 -57.46963 15086 ft 301 kts 289°
2026-04-22 18:21 -34.90614 -57.49352 14851 ft 300 kts 289°
2026-04-22 18:21 -34.89888 -57.51764 14610 ft 299 kts 288°
2026-04-22 18:22 -34.89175 -57.54130 14359 ft 295 kts 288°
2026-04-22 18:22 -34.88474 -57.56453 14002 ft 290 kts 288°
2026-04-22 18:22 -34.87781 -57.58744 13579 ft 287 kts 288°
2026-04-22 18:22 -34.87095 -57.61015 13168 ft 285 kts 288°
2026-04-22 18:23 -34.86413 -57.63266 12771 ft 282 kts 288°
2026-04-22 18:23 -34.85736 -57.65502 12383 ft 280 kts 287°
2026-04-22 18:23 -34.85062 -57.67723 11988 ft 279 kts 287°
2026-04-22 18:24 -34.83722 -57.72133 11218 ft 277 kts 286°
2026-04-22 18:24 -34.83057 -57.74329 10831 ft 276 kts 285°
2026-04-22 18:24 -34.81734 -57.78682 10258 ft 268 kts 285°
2026-04-22 18:25 -34.81085 -57.80803 10215 ft 268 kts 285°
2026-04-22 18:25 -34.80436 -57.82933 10150 ft 269 kts 285°
2026-04-22 18:25 -34.79786 -57.85068 9910 ft 271 kts 285°
2026-04-22 18:26 -34.78467 -57.89393 8982 ft 272 kts 285°
2026-04-22 18:26 -34.77811 -57.91528 8448 ft 268 kts 285°
2026-04-22 18:26 -34.77161 -57.93642 7984 ft 266 kts 285°
2026-04-22 18:26 -34.76513 -57.95752 7526 ft 265 kts 285°
2026-04-22 18:27 -34.75871 -57.97848 7079 ft 265 kts 285°
2026-04-22 18:27 -34.75227 -57.99953 6628 ft 268 kts 285°
2026-04-22 18:27 -34.74575 -58.02090 6197 ft 270 kts 285°
2026-04-22 18:27 -34.73917 -58.04232 5760 ft 271 kts 286°
2026-04-22 18:28 -34.73263 -58.06348 5260 ft 266 kts 286°
2026-04-22 18:28 -34.72627 -58.08398 5044 ft 251 kts 287°
2026-04-22 18:28 -34.72029 -58.10315 4885 ft 235 kts 286°
2026-04-22 18:28 -34.71456 -58.12168 4520 ft 233 kts 287°
2026-04-22 18:29 -34.70886 -58.14016 4345 ft 229 kts 287°
2026-04-22 18:29 -34.70245 -58.15785 4204 ft 232 kts 297°
2026-04-22 18:29 -34.69341 -58.17487 3567 ft 247 kts 301°
2026-04-22 18:29 -34.68357 -58.19272 2956 ft 259 kts 301°
2026-04-22 18:30 -34.67363 -58.21049 2706 ft 246 kts 301°
2026-04-22 18:30 -34.65598 -58.24190 2478 ft 205 kts 301°
2026-04-22 18:30 -34.64812 -58.25593 2341 ft 197 kts 301°
2026-04-22 18:31 -34.64050 -58.26958 2230 ft 194 kts 301°
2026-04-22 18:31 -34.63315 -58.28275 2070 ft 181 kts 301°
2026-04-22 18:31 -34.62639 -58.29485 1955 ft 166 kts 300°
2026-04-22 18:31 -34.62019 -58.30596 1838 ft 152 kts 301°
2026-04-22 18:32 -34.61448 -58.31621 1769 ft 144 kts 299°
2026-04-22 18:32 -34.60898 -58.32610 1651 ft 140 kts 298°
2026-04-22 18:32 -34.60355 -58.33587 1441 ft 139 kts 300°
2026-04-22 18:32 -34.59809 -58.34573 1250 ft 139 kts 300°
2026-04-22 18:33 -34.59272 -58.35541 1063 ft 138 kts 301°
2026-04-22 18:33 -34.58738 -58.36508 855 ft 138 kts 301°
2026-04-22 18:33 -34.58208 -58.37482 665 ft 138 kts 301°
2026-04-22 18:33 -34.57672 -58.38443 460 ft 137 kts 301°
2026-04-22 18:34 -34.57147 -58.39405 279 ft 137 kts 301°
2026-04-22 18:34 -34.56608 -58.40355 116 ft 137 kts 301°
2026-04-22 18:34 -34.56084 -58.41295 28 ft 124 kts 302°
2026-04-22 18:34 -34.55733 -58.41924 25 ft 48 kts 305°
2026-04-22 18:35 -34.55613 -58.42135 27 ft 29 kts 304°
2026-04-22 18:35 -34.55497 -58.42342 28 ft 31 kts 304°
2026-04-22 18:35 -34.55407 -58.42498 28 ft 10 kts 320°
2026-04-22 18:35 -34.55363 -58.42466 29 ft 0 kts 79°
2026-04-22 18:36 -34.55362 -58.42448 25 ft 5 kts 91°
2026-04-22 18:36 -34.55365 -58.42397 25 ft 7 kts 101°
2026-04-22 18:36 -34.55374 -58.42373 25 ft 3 kts 116°
2026-04-22 18:36 -34.55389 -58.42342 28 ft 6 kts 125°
2026-04-22 18:37 -34.55413 -58.42304 28 ft 7 kts 128°
2026-04-22 18:37 -34.55449 -58.42248 29 ft 10 kts 128°
2026-04-22 18:37 -34.55480 -58.42199 29 ft 12 kts 127°
2026-04-22 18:37 -34.55548 -58.42089 30 ft 8 kts 126°
2026-04-22 18:38 -34.55580 -58.42037 27 ft 3 kts 125°
2026-04-22 18:38 -34.55597 -58.42008 26 ft 6 kts 125°
2026-04-22 18:38 -34.55625 -58.41958 27 ft 9 kts 124°
2026-04-22 18:39 -34.55699 -58.41823 28 ft 11 kts 123°
2026-04-22 18:39 -34.55740 -58.41742 28 ft 12 kts 117°
2026-04-22 18:39 -34.55778 -58.41653 28 ft 13 kts 117°
2026-04-22 18:39 -34.55819 -58.41555 25 ft 9 kts 117°
2026-04-22 18:40 -34.55848 -58.41484 25 ft 11 kts 117°
2026-04-22 18:40 -34.55888 -58.41390 27 ft 14 kts 117°
2026-04-22 18:40 -34.55902 -58.41311 28 ft 9 kts 55°
2026-04-22 18:40 -34.55838 -58.41293 25 ft 11 kts 334°
2026-04-22 18:41 -34.55789 -58.41380 27 ft 14 kts 301°
2026-04-22 18:41 -34.55750 -58.41452 25 ft 1 kts 305°
2026-04-22 18:41 -34.55740 -58.41469 28 ft 4 kts 305°
2026-04-22 18:41 -34.55723 -58.41465 26 ft 2 kts 32°
2026-04-22 18:42 -34.55708 -58.41451 26 ft 3 kts 34°
2026-04-22 18:42 -34.55701 -58.41447 25 ft 0 kts 24°